owner,sensor,date,latitude,longitude,vertical_datum,wind_speed,wind_to_direction,wind_speed_of_gust,qcFlag 
TCOON,ioos:station:TCOON:003:1,2019-03-01T00:00:00Z,26.8015,-97.4706,0.0,9.7,38.0,12.7,'11111222,11111222,11111222' 
TCOON,ioos:station:TCOON:003:1,2019-03-01T00:06:00Z,26.8015,-97.4706,0.0,11.3,29.0,12.8,'11111222,11111222,11111222' 
TCOON,ioos:station:TCOON:003:1,2019-03-01T00:12:00Z,26.8015,-97.4706,0.0,11.8,29.0,13.3,'11111222,11111222,11111222' 
TCOON,ioos:station:TCOON:003:1,2019-03-01T00:18:00Z,26.8015,-97.4706,0.0,9.7,27.0,12.7,'11111222,11111222,11111222' 
TCOON,ioos:station:TCOON:003:1,2019-03-01T00:24:00Z,26.8015,-97.4706,0.0,9.1,24.0,11.8,'11111222,11111222,11111222' 
TCOON,ioos:station:TCOON:003:1,2019-03-01T00:30:00Z,26.8015,-97.4706,0.0,10.4,20.0,12.6,'11111222,11111222,11111222' 
TCOON,ioos:station:TCOON:003:1,2019-03-01T00:36:00Z,26.8015,-97.4706,0.0,10.0,28.0,12.2,'11111222,11111222,11111222' 
TCOON,ioos:station:TCOON:003:1,2019-03-01T00:42:00Z,26.8015,-97.4706,0.0,9.5,31.0,11.8,'11111222,11111222,11111222' 
TCOON,ioos:station:TCOON:003:1,2019-03-01T00:48:00Z,26.8015,-97.4706,0.0,8.4,40.0,9.7,'11111222,11111222,11111222' 
TCOON,ioos:station:TCOON:003:1,2019-03-01T00:54:00Z,26.8015,-97.4706,0.0,8.8,56.0,9.9,'11111222,11111222,11111222' 
TCOON,ioos:station:TCOON:003:1,2019-03-01T01:00:00Z,26.8015,-97.4706,0.0,9.0,78.0,11.0,'11111222,11111222,11111222' 
TCOON,ioos:station:TCOON:003:1,2019-03-01T01:06:00Z,26.8015,-97.4706,0.0,9.2,69.0,10.8,'11111222,11111222,11111222' 
TCOON,ioos:station:TCOON:003:1,2019-03-01T01:12:00Z,26.8015,-97.4706,0.0,7.9,71.0,10.4,'11111222,11111222,11111222' 
TCOON,ioos:station:TCOON:003:1,2019-03-01T01:18:00Z,26.8015,-97.4706,0.0,7.3,73.0,9.3,'11111222,11111222,11111222' 
TCOON,ioos:station:TCOON:003:1,2019-03-01T01:24:00Z,26.8015,-97.4706,0.0,6.2,73.0,8.5,'11111222,11111222,11111222' 
TCOON,ioos:station:TCOON:003:1,2019-03-01T01:30:00Z,26.8015,-97.4706,0.0,6.9,67.0,8.0,'11111222,11111222,11111222' 
TCOON,ioos:station:TCOON:003:1,2019-03-01T01:36:00Z,26.8015,-97.4706,0.0,6.6,70.0,8.6,'11111222,11111222,11111222' 
TCOON,ioos:station:TCOON:003:1,2019-03-01T01:42:00Z,26.8015,-97.4706,0.0,7.0,75.0,7.8,'11111222,11111222,11111222' 
TCOON,ioos:station:TCOON:003:1,2019-03-01T01:48:00Z,26.8015,-97.4706,0.0,6.6,73.0,8.2,'11111222,11111222,11111222' 
TCOON,ioos:station:TCOON:003:1,2019-03-01T01:54:00Z,26.8015,-97.4706,0.0,6.5,74.0,8.4,'11111222,11111222,11111222' 
TCOON,ioos:station:TCOON:003:1,2019-03-01T02:00:00Z,26.8015,-97.4706,0.0,6.2,76.0,7.5,'11111222,11111222,11111222' 
TCOON,ioos:station:TCOON:003:1,2019-03-01T02:06:00Z,26.8015,-97.4706,0.0,5.7,79.0,7.7,'11111222,11111222,11111222' 
TCOON,ioos:station:TCOON:003:1,2019-03-01T02:12:00Z,26.8015,-97.4706,0.0,5.7,69.0,7.0,'11111222,11111222,11111222' 
TCOON,ioos:station:TCOON:003:1,2019-03-01T02:18:00Z,26.8015,-97.4706,0.0,5.0,64.0,6.1,'11111222,11111222,11111222' 
TCOON,ioos:station:TCOON:003:1,2019-03-01T02:24:00Z,26.8015,-97.4706,0.0,5.4,70.0,6.3,'11111222,11111222,11111222' 
TCOON,ioos:station:TCOON:003:1,2019-03-01T02:30:00Z,26.8015,-97.4706,0.0,4.8,65.0,5.7,'11111222,11111222,11111222' 
TCOON,ioos:station:TCOON:003:1,2019-03-01T02:36:00Z,26.8015,-97.4706,0.0,4.8,65.0,5.7,'1111122,1111122,1111122' 
TCOON,ioos:station:TCOON:003:1,2019-03-01T02:42:00Z,26.8015,-97.4706,0.0,3.7,60.0,6.0,'11111222,11111222,11111222' 
TCOON,ioos:station:TCOON:003:1,2019-03-01T02:48:00Z,26.8015,-97.4706,0.0,3.8,42.0,5.0,'11111222,11111222,11111222' 
TCOON,ioos:station:TCOON:003:1,2019-03-01T02:54:00Z,26.8015,-97.4706,0.0,4.3,13.0,5.2,'11111222,11111222,11111222' 
TCOON,ioos:station:TCOON:003:1,2019-03-01T03:00:00Z,26.8015,-97.4706,0.0,4.6,9.0,5.3,'11111222,11111222,11111222' 
TCOON,ioos:station:TCOON:003:1,2019-03-01T03:06:00Z,26.8015,-97.4706,0.0,4.3,12.0,5.4,'11111222,11111222,11111222' 
TCOON,ioos:station:TCOON:003:1,2019-03-01T03:12:00Z,26.8015,-97.4706,0.0,3.8,28.0,6.2,'11111222,11111222,11111222' 
TCOON,ioos:station:TCOON:003:1,2019-03-01T03:18:00Z,26.8015,-97.4706,0.0,3.6,17.0,4.6,'11111222,11111222,11111222' 
TCOON,ioos:station:TCOON:003:1,2019-03-01T03:24:00Z,26.8015,-97.4706,0.0,3.6,17.0,4.6,'1111122,1111122,1111122' 
TCOON,ioos:station:TCOON:003:1,2019-03-01T03:30:00Z,26.8015,-97.4706,0.0,5.3,8.0,6.7,'11111222,11111222,11111222' 
TCOON,ioos:station:TCOON:003:1,2019-03-01T03:36:00Z,26.8015,-97.4706,0.0,6.1,10.0,7.2,'11111222,11111222,11111222' 
TCOON,ioos:station:TCOON:003:1,2019-03-01T03:42:00Z,26.8015,-97.4706,0.0,7.3,19.0,8.0,'11111222,11111222,11111222' 
TCOON,ioos:station:TCOON:003:1,2019-03-01T03:48:00Z,26.8015,-97.4706,0.0,6.4,22.0,7.6,'11111222,11111222,11111222' 
TCOON,ioos:station:TCOON:003:1,2019-03-01T03:54:00Z,26.8015,-97.4706,0.0,6.3,24.0,7.2,'11111222,11111222,11111222' 
TCOON,ioos:station:TCOON:003:1,2019-03-01T04:00:00Z,26.8015,-97.4706,0.0,6.3,20.0,7.3,'11111222,11111222,11111222' 
TCOON,ioos:station:TCOON:003:1,2019-03-01T04:06:00Z,26.8015,-97.4706,0.0,6.7,21.0,8.2,'11111222,11111222,11111222' 
TCOON,ioos:station:TCOON:003:1,2019-03-01T04:12:00Z,26.8015,-97.4706,0.0,6.7,29.0,8.0,'11111222,11111222,11111222' 
TCOON,ioos:station:TCOON:003:1,2019-03-01T04:18:00Z,26.8015,-97.4706,0.0,7.4,21.0,8.3,'11111222,11111222,11111222' 
TCOON,ioos:station:TCOON:003:1,2019-03-01T04:24:00Z,26.8015,-97.4706,0.0,7.4,21.0,8.3,'1111122,1111122,1111122' 
TCOON,ioos:station:TCOON:003:1,2019-03-01T04:30:00Z,26.8015,-97.4706,0.0,7.5,19.0,9.2,'11111222,11111222,11111222' 
TCOON,ioos:station:TCOON:003:1,2019-03-01T04:36:00Z,26.8015,-97.4706,0.0,7.9,20.0,9.4,'11111222,11111222,11111222' 
TCOON,ioos:station:TCOON:003:1,2019-03-01T04:42:00Z,26.8015,-97.4706,0.0,9.1,15.0,10.2,'11111222,11111222,11111222' 
TCOON,ioos:station:TCOON:003:1,2019-03-01T04:48:00Z,26.8015,-97.4706,0.0,9.0,20.0,11.1,'11111222,11111222,11111222' 
TCOON,ioos:station:TCOON:003:1,2019-03-01T04:54:00Z,26.8015,-97.4706,0.0,9.0,18.0,10.4,'11111222,11111222,11111222' 
TCOON,ioos:station:TCOON:003:1,2019-03-01T05:00:00Z,26.8015,-97.4706,0.0,9.1,19.0,11.0,'11111222,11111222,11111222' 
TCOON,ioos:station:TCOON:003:1,2019-03-01T05:06:00Z,26.8015,-97.4706,0.0,9.4,18.0,10.5,'11111222,11111222,11111222' 
TCOON,ioos:station:TCOON:003:1,2019-03-01T05:12:00Z,26.8015,-97.4706,0.0,9.1,19.0,11.0,'11111222,11111222,11111222' 
TCOON,ioos:station:TCOON:003:1,2019-03-01T05:18:00Z,26.8015,-97.4706,0.0,9.6,15.0,10.9,'11111222,11111222,11111222' 
TCOON,ioos:station:TCOON:003:1,2019-03-01T05:24:00Z,26.8015,-97.4706,0.0,9.6,15.0,10.9,'1111122,1111122,1111122' 
TCOON,ioos:station:TCOON:003:1,2019-03-01T05:30:00Z,26.8015,-97.4706,0.0,9.0,15.0,10.7,'11111222,11111222,11111222' 
TCOON,ioos:station:TCOON:003:1,2019-03-01T05:36:00Z,26.8015,-97.4706,0.0,8.1,13.0,11.2,'11111222,11111222,11111222' 
TCOON,ioos:station:TCOON:003:1,2019-03-01T05:42:00Z,26.8015,-97.4706,0.0,8.7,7.0,10.4,'11111222,11111222,11111222' 
TCOON,ioos:station:TCOON:003:1,2019-03-01T05:48:00Z,26.8015,-97.4706,0.0,9.5,12.0,10.8,'11111222,11111222,11111222' 
TCOON,ioos:station:TCOON:003:1,2019-03-01T05:54:00Z,26.8015,-97.4706,0.0,8.1,8.0,10.6,'11111222,11111222,11111222' 
TCOON,ioos:station:TCOON:003:1,2019-03-01T06:00:00Z,26.8015,-97.4706,0.0,9.2,13.0,10.3,'11111222,11111222,11111222' 
TCOON,ioos:station:TCOON:003:1,2019-03-01T06:06:00Z,26.8015,-97.4706,0.0,9.1,10.0,10.6,'11111222,11111222,11111222' 
TCOON,ioos:station:TCOON:003:1,2019-03-01T06:12:00Z,26.8015,-97.4706,0.0,8.7,17.0,10.1,'11111222,11111222,11111222' 
TCOON,ioos:station:TCOON:003:1,2019-03-01T06:18:00Z,26.8015,-97.4706,0.0,9.5,7.0,10.7,'11111222,11111222,11111222' 
TCOON,ioos:station:TCOON:003:1,2019-03-01T06:24:00Z,26.8015,-97.4706,0.0,9.5,7.0,10.7,'1111122,1111122,1111122' 
TCOON,ioos:station:TCOON:003:1,2019-03-01T06:30:00Z,26.8015,-97.4706,0.0,8.0,8.0,9.2,'11111222,11111222,11111222' 
TCOON,ioos:station:TCOON:003:1,2019-03-01T06:36:00Z,26.8015,-97.4706,0.0,7.5,22.0,10.1,'11111222,11111222,11111222' 
TCOON,ioos:station:TCOON:003:1,2019-03-01T06:42:00Z,26.8015,-97.4706,0.0,8.6,24.0,9.9,'11111222,11111222,11111222' 
TCOON,ioos:station:TCOON:003:1,2019-03-01T06:48:00Z,26.8015,-97.4706,0.0,8.0,21.0,9.9,'11111222,11111222,11111222' 
TCOON,ioos:station:TCOON:003:1,2019-03-01T06:54:00Z,26.8015,-97.4706,0.0,7.3,22.0,9.7,'11111222,11111222,11111222' 
TCOON,ioos:station:TCOON:003:1,2019-03-01T07:00:00Z,26.8015,-97.4706,0.0,7.5,21.0,8.8,'11111222,11111222,11111222' 
TCOON,ioos:station:TCOON:003:1,2019-03-01T07:06:00Z,26.8015,-97.4706,0.0,7.5,19.0,9.1,'11111222,11111222,11111222' 
TCOON,ioos:station:TCOON:003:1,2019-03-01T07:12:00Z,26.8015,-97.4706,0.0,7.9,23.0,9.1,'11111222,11111222,11111222' 
TCOON,ioos:station:TCOON:003:1,2019-03-01T07:18:00Z,26.8015,-97.4706,0.0,7.7,18.0,9.3,'11111222,11111222,11111222' 
TCOON,ioos:station:TCOON:003:1,2019-03-01T07:24:00Z,26.8015,-97.4706,0.0,7.7,18.0,9.3,'1111122,1111122,1111122' 
TCOON,ioos:station:TCOON:003:1,2019-03-01T07:30:00Z,26.8015,-97.4706,0.0,7.5,19.0,8.5,'11111222,11111222,11111222' 
TCOON,ioos:station:TCOON:003:1,2019-03-01T07:36:00Z,26.8015,-97.4706,0.0,6.5,19.0,8.3,'11111222,11111222,11111222' 
TCOON,ioos:station:TCOON:003:1,2019-03-01T07:42:00Z,26.8015,-97.4706,0.0,6.2,13.0,7.3,'11111222,11111222,11111222' 
TCOON,ioos:station:TCOON:003:1,2019-03-01T07:48:00Z,26.8015,-97.4706,0.0,6.1,17.0,7.4,'11111222,11111222,11111222' 
TCOON,ioos:station:TCOON:003:1,2019-03-01T07:54:00Z,26.8015,-97.4706,0.0,5.5,18.0,7.1,'11111222,11111222,11111222' 
TCOON,ioos:station:TCOON:003:1,2019-03-01T08:00:00Z,26.8015,-97.4706,0.0,7.2,16.0,8.0,'11111222,11111222,11111222' 
TCOON,ioos:station:TCOON:003:1,2019-03-01T08:06:00Z,26.8015,-97.4706,0.0,6.9,21.0,7.8,'11111222,11111222,11111222' 
TCOON,ioos:station:TCOON:003:1,2019-03-01T08:12:00Z,26.8015,-97.4706,0.0,7.3,20.0,8.3,'11111222,11111222,11111222' 
TCOON,ioos:station:TCOON:003:1,2019-03-01T08:18:00Z,26.8015,-97.4706,0.0,6.2,23.0,8.1,'11111222,11111222,11111222' 
TCOON,ioos:station:TCOON:003:1,2019-03-01T08:24:00Z,26.8015,-97.4706,0.0,6.2,23.0,8.1,'1111122,1111122,1111122' 
TCOON,ioos:station:TCOON:003:1,2019-03-01T08:30:00Z,26.8015,-97.4706,0.0,6.1,24.0,7.2,'11111222,11111222,11111222' 
TCOON,ioos:station:TCOON:003:1,2019-03-01T08:36:00Z,26.8015,-97.4706,0.0,6.4,22.0,7.1,'11111222,11111222,11111222' 
TCOON,ioos:station:TCOON:003:1,2019-03-01T08:42:00Z,26.8015,-97.4706,0.0,6.0,28.0,6.7,'11111222,11111222,11111222' 
TCOON,ioos:station:TCOON:003:1,2019-03-01T08:48:00Z,26.8015,-97.4706,0.0,5.8,25.0,7.1,'11111222,11111222,11111222' 
TCOON,ioos:station:TCOON:003:1,2019-03-01T08:54:00Z,26.8015,-97.4706,0.0,5.5,21.0,6.7,'11111222,11111222,11111222' 
TCOON,ioos:station:TCOON:003:1,2019-03-01T09:00:00Z,26.8015,-97.4706,0.0,5.5,20.0,6.3,'11111222,11111222,11111222' 
TCOON,ioos:station:TCOON:003:1,2019-03-01T09:06:00Z,26.8015,-97.4706,0.0,5.6,26.0,6.4,'11111222,11111222,11111222' 
TCOON,ioos:station:TCOON:003:1,2019-03-01T09:12:00Z,26.8015,-97.4706,0.0,5.4,25.0,6.8,'11111222,11111222,11111222' 
TCOON,ioos:station:TCOON:003:1,2019-03-01T09:18:00Z,26.8015,-97.4706,0.0,5.4,26.0,6.1,'11111222,11111222,11111222' 
TCOON,ioos:station:TCOON:003:1,2019-03-01T09:24:00Z,26.8015,-97.4706,0.0,5.4,26.0,6.1,'1111122,1111122,1111122' 
TCOON,ioos:station:TCOON:003:1,2019-03-01T09:30:00Z,26.8015,-97.4706,0.0,5.0,14.0,5.9,'11111222,11111222,11111222' 
TCOON,ioos:station:TCOON:003:1,2019-03-01T09:36:00Z,26.8015,-97.4706,0.0,5.7,19.0,6.7,'11111222,11111222,11111222' 
TCOON,ioos:station:TCOON:003:1,2019-03-01T09:42:00Z,26.8015,-97.4706,0.0,5.4,18.0,6.6,'11111222,11111222,11111222' 
TCOON,ioos:station:TCOON:003:1,2019-03-01T09:48:00Z,26.8015,-97.4706,0.0,5.4,21.0,6.7,'11111222,11111222,11111222' 
TCOON,ioos:station:TCOON:003:1,2019-03-01T09:54:00Z,26.8015,-97.4706,0.0,5.6,14.0,6.5,'11111222,11111222,11111222' 
TCOON,ioos:station:TCOON:003:1,2019-03-01T10:00:00Z,26.8015,-97.4706,0.0,5.1,17.0,6.6,'11111222,11111222,11111222' 
TCOON,ioos:station:TCOON:003:1,2019-03-01T10:06:00Z,26.8015,-97.4706,0.0,5.4,16.0,6.5,'11111222,11111222,11111222' 
TCOON,ioos:station:TCOON:003:1,2019-03-01T10:12:00Z,26.8015,-97.4706,0.0,5.4,17.0,6.4,'11111222,11111222,11111222' 
TCOON,ioos:station:TCOON:003:1,2019-03-01T10:18:00Z,26.8015,-97.4706,0.0,5.4,9.0,6.4,'11111222,11111222,11111222' 
TCOON,ioos:station:TCOON:003:1,2019-03-01T10:24:00Z,26.8015,-97.4706,0.0,5.4,9.0,6.4,'1111122,1111122,1111122' 
TCOON,ioos:station:TCOON:003:1,2019-03-01T10:30:00Z,26.8015,-97.4706,0.0,5.4,12.0,6.2,'11111222,11111222,11111222' 
TCOON,ioos:station:TCOON:003:1,2019-03-01T10:36:00Z,26.8015,-97.4706,0.0,4.6,17.0,6.0,'11111222,11111222,11111222' 
TCOON,ioos:station:TCOON:003:1,2019-03-01T10:42:00Z,26.8015,-97.4706,0.0,5.0,17.0,5.8,'11111222,11111222,11111222' 
TCOON,ioos:station:TCOON:003:1,2019-03-01T10:48:00Z,26.8015,-97.4706,0.0,6.0,19.0,6.6,'11111222,11111222,11111222' 
TCOON,ioos:station:TCOON:003:1,2019-03-01T10:54:00Z,26.8015,-97.4706,0.0,6.1,14.0,7.0,'11111222,11111222,11111222' 
TCOON,ioos:station:TCOON:003:1,2019-03-01T11:00:00Z,26.8015,-97.4706,0.0,5.7,15.0,7.0,'11111222,11111222,11111222' 
TCOON,ioos:station:TCOON:003:1,2019-03-01T11:06:00Z,26.8015,-97.4706,0.0,5.9,10.0,7.1,'11111222,11111222,11111222' 
TCOON,ioos:station:TCOON:003:1,2019-03-01T11:12:00Z,26.8015,-97.4706,0.0,6.3,11.0,7.1,'11111222,11111222,11111222' 
TCOON,ioos:station:TCOON:003:1,2019-03-01T11:18:00Z,26.8015,-97.4706,0.0,5.9,13.0,7.2,'11111222,11111222,11111222' 
TCOON,ioos:station:TCOON:003:1,2019-03-01T11:24:00Z,26.8015,-97.4706,0.0,5.9,13.0,7.2,'1111122,1111122,1111122' 
TCOON,ioos:station:TCOON:003:1,2019-03-01T11:30:00Z,26.8015,-97.4706,0.0,5.9,9.0,7.0,'11111222,11111222,11111222' 
TCOON,ioos:station:TCOON:003:1,2019-03-01T11:36:00Z,26.8015,-97.4706,0.0,6.4,9.0,7.5,'11111222,11111222,11111222' 
TCOON,ioos:station:TCOON:003:1,2019-03-01T11:42:00Z,26.8015,-97.4706,0.0,5.9,12.0,7.5,'11111222,11111222,11111222' 
TCOON,ioos:station:TCOON:003:1,2019-03-01T11:48:00Z,26.8015,-97.4706,0.0,6.7,14.0,7.8,'11111222,11111222,11111222' 
TCOON,ioos:station:TCOON:003:1,2019-03-01T11:54:00Z,26.8015,-97.4706,0.0,6.8,16.0,7.9,'11111222,11111222,11111222' 
TCOON,ioos:station:TCOON:003:1,2019-03-01T12:00:00Z,26.8015,-97.4706,0.0,6.5,13.0,7.8,'11111222,11111222,11111222' 
TCOON,ioos:station:TCOON:003:1,2019-03-01T12:06:00Z,26.8015,-97.4706,0.0,6.4,10.0,7.7,'11111222,11111222,11111222' 
TCOON,ioos:station:TCOON:003:1,2019-03-01T12:12:00Z,26.8015,-97.4706,0.0,6.8,9.0,7.9,'11111222,11111222,11111222' 
TCOON,ioos:station:TCOON:003:1,2019-03-01T12:18:00Z,26.8015,-97.4706,0.0,6.2,10.0,7.2,'11111222,11111222,11111222' 
TCOON,ioos:station:TCOON:003:1,2019-03-01T12:24:00Z,26.8015,-97.4706,0.0,6.2,10.0,7.2,'1111122,1111122,1111122' 
TCOON,ioos:station:TCOON:003:1,2019-03-01T12:30:00Z,26.8015,-97.4706,0.0,5.6,10.0,7.5,'11111222,11111222,11111222' 
TCOON,ioos:station:TCOON:003:1,2019-03-01T12:36:00Z,26.8015,-97.4706,0.0,5.6,19.0,6.4,'11111222,11111222,11111222' 
TCOON,ioos:station:TCOON:003:1,2019-03-01T12:42:00Z,26.8015,-97.4706,0.0,6.1,19.0,6.9,'11111222,11111222,11111222' 
TCOON,ioos:station:TCOON:003:1,2019-03-01T13:06:00Z,26.8015,-97.4706,0.0,5.9,14.0,6.7,'11111222,11111222,11111222' 
TCOON,ioos:station:TCOON:003:1,2019-03-01T13:12:00Z,26.8015,-97.4706,0.0,6.5,15.0,7.3,'11111222,11111222,11111222' 
TCOON,ioos:station:TCOON:003:1,2019-03-01T13:18:00Z,26.8015,-97.4706,0.0,5.6,14.0,7.0,'11111222,11111222,11111222' 
TCOON,ioos:station:TCOON:003:1,2019-03-01T13:24:00Z,26.8015,-97.4706,0.0,5.6,14.0,7.0,'1111122,1111122,1111122' 
TCOON,ioos:station:TCOON:003:1,2019-03-01T13:30:00Z,26.8015,-97.4706,0.0,5.7,14.0,6.7,'11111222,11111222,11111222' 
TCOON,ioos:station:TCOON:003:1,2019-03-01T13:36:00Z,26.8015,-97.4706,0.0,6.0,16.0,6.5,'11111222,11111222,11111222' 
TCOON,ioos:station:TCOON:003:1,2019-03-01T13:42:00Z,26.8015,-97.4706,0.0,6.0,15.0,7.1,'11111222,11111222,11111222' 
TCOON,ioos:station:TCOON:003:1,2019-03-01T13:48:00Z,26.8015,-97.4706,0.0,5.3,16.0,6.4,'11111222,11111222,11111222' 
TCOON,ioos:station:TCOON:003:1,2019-03-01T13:54:00Z,26.8015,-97.4706,0.0,5.0,26.0,6.3,'11111222,11111222,11111222' 
TCOON,ioos:station:TCOON:003:1,2019-03-01T14:00:00Z,26.8015,-97.4706,0.0,5.9,20.0,6.5,'11111222,11111222,11111222' 
TCOON,ioos:station:TCOON:003:1,2019-03-01T14:06:00Z,26.8015,-97.4706,0.0,5.7,19.0,6.3,'11111222,11111222,11111222' 
TCOON,ioos:station:TCOON:003:1,2019-03-01T14:12:00Z,26.8015,-97.4706,0.0,5.5,18.0,6.3,'11111222,11111222,11111222' 
TCOON,ioos:station:TCOON:003:1,2019-03-01T14:18:00Z,26.8015,-97.4706,0.0,5.2,19.0,6.0,'11111222,11111222,11111222' 
TCOON,ioos:station:TCOON:003:1,2019-03-01T14:24:00Z,26.8015,-97.4706,0.0,5.2,19.0,6.0,'1111122,1111122,1111122' 
TCOON,ioos:station:TCOON:003:1,2019-03-01T14:30:00Z,26.8015,-97.4706,0.0,4.5,14.0,5.1,'11111222,11111222,11111222' 
TCOON,ioos:station:TCOON:003:1,2019-03-01T14:36:00Z,26.8015,-97.4706,0.0,4.6,18.0,5.8,'11111222,11111222,11111222' 
TCOON,ioos:station:TCOON:003:1,2019-03-01T14:42:00Z,26.8015,-97.4706,0.0,4.0,12.0,4.9,'11111222,11111222,11111222' 
TCOON,ioos:station:TCOON:003:1,2019-03-01T14:48:00Z,26.8015,-97.4706,0.0,4.5,16.0,5.0,'11111222,11111222,11111222' 
TCOON,ioos:station:TCOON:003:1,2019-03-01T14:54:00Z,26.8015,-97.4706,0.0,4.1,16.0,5.1,'11111222,11111222,11111222' 
TCOON,ioos:station:TCOON:003:1,2019-03-01T15:00:00Z,26.8015,-97.4706,0.0,4.5,21.0,5.0,'11111222,11111222,11111222' 
TCOON,ioos:station:TCOON:003:1,2019-03-01T15:06:00Z,26.8015,-97.4706,0.0,4.4,21.0,5.2,'11111222,11111222,11111222' 
TCOON,ioos:station:TCOON:003:1,2019-03-01T15:12:00Z,26.8015,-97.4706,0.0,4.8,16.0,5.5,'11111222,11111222,11111222' 
TCOON,ioos:station:TCOON:003:1,2019-03-01T15:18:00Z,26.8015,-97.4706,0.0,5.1,19.0,5.6,'11111222,11111222,11111222' 
TCOON,ioos:station:TCOON:003:1,2019-03-01T15:24:00Z,26.8015,-97.4706,0.0,5.3,22.0,6.0,'11111222,11111222,11111222' 
TCOON,ioos:station:TCOON:003:1,2019-03-01T15:30:00Z,26.8015,-97.4706,0.0,5.0,29.0,5.9,'11111222,11111222,11111222' 
TCOON,ioos:station:TCOON:003:1,2019-03-01T15:36:00Z,26.8015,-97.4706,0.0,5.0,29.0,5.9,'1111122,1111122,1111122' 
TCOON,ioos:station:TCOON:003:1,2019-03-01T15:42:00Z,26.8015,-97.4706,0.0,5.1,28.0,6.3,'11111222,11111222,11111222' 
TCOON,ioos:station:TCOON:003:1,2019-03-01T15:48:00Z,26.8015,-97.4706,0.0,6.0,26.0,6.7,'11111222,11111222,11111222' 
TCOON,ioos:station:TCOON:003:1,2019-03-01T15:54:00Z,26.8015,-97.4706,0.0,6.0,31.0,6.8,'11111222,11111222,11111222' 
TCOON,ioos:station:TCOON:003:1,2019-03-01T16:00:00Z,26.8015,-97.4706,0.0,5.9,23.0,6.6,'11111222,11111222,11111222' 
TCOON,ioos:station:TCOON:003:1,2019-03-01T16:06:00Z,26.8015,-97.4706,0.0,6.3,25.0,6.8,'11111222,11111222,11111222' 
TCOON,ioos:station:TCOON:003:1,2019-03-01T16:12:00Z,26.8015,-97.4706,0.0,5.7,19.0,6.7,'11111222,11111222,11111222' 
TCOON,ioos:station:TCOON:003:1,2019-03-01T16:18:00Z,26.8015,-97.4706,0.0,6.3,18.0,7.0,'11111222,11111222,11111222' 
TCOON,ioos:station:TCOON:003:1,2019-03-01T16:24:00Z,26.8015,-97.4706,0.0,6.3,18.0,7.0,'1111122,1111122,1111122' 
TCOON,ioos:station:TCOON:003:1,2019-03-01T16:30:00Z,26.8015,-97.4706,0.0,6.2,11.0,7.6,'11111222,11111222,11111222' 
TCOON,ioos:station:TCOON:003:1,2019-03-01T16:36:00Z,26.8015,-97.4706,0.0,6.1,3.0,7.6,'11111222,11111222,11111222' 
TCOON,ioos:station:TCOON:003:1,2019-03-01T16:42:00Z,26.8015,-97.4706,0.0,5.6,13.0,6.6,'11111222,11111222,11111222' 
TCOON,ioos:station:TCOON:003:1,2019-03-01T16:48:00Z,26.8015,-97.4706,0.0,5.7,12.0,7.0,'11111222,11111222,11111222' 
TCOON,ioos:station:TCOON:003:1,2019-03-01T16:54:00Z,26.8015,-97.4706,0.0,5.7,10.0,6.7,'11111222,11111222,11111222' 
TCOON,ioos:station:TCOON:003:1,2019-03-01T17:00:00Z,26.8015,-97.4706,0.0,5.7,16.0,6.3,'11111222,11111222,11111222' 
TCOON,ioos:station:TCOON:003:1,2019-03-01T17:06:00Z,26.8015,-97.4706,0.0,5.7,10.0,6.9,'11111222,11111222,11111222' 
TCOON,ioos:station:TCOON:003:1,2019-03-01T17:12:00Z,26.8015,-97.4706,0.0,6.9,12.0,7.5,'11111222,11111222,11111222' 
TCOON,ioos:station:TCOON:003:1,2019-03-01T17:18:00Z,26.8015,-97.4706,0.0,6.7,13.0,8.0,'11111222,11111222,11111222' 
TCOON,ioos:station:TCOON:003:1,2019-03-01T17:24:00Z,26.8015,-97.4706,0.0,6.7,13.0,8.0,'1111122,1111122,1111122' 
TCOON,ioos:station:TCOON:003:1,2019-03-01T17:30:00Z,26.8015,-97.4706,0.0,7.8,12.0,8.5,'11111222,11111222,11111222' 
TCOON,ioos:station:TCOON:003:1,2019-03-01T17:36:00Z,26.8015,-97.4706,0.0,7.7,16.0,8.9,'11111222,11111222,11111222' 
TCOON,ioos:station:TCOON:003:1,2019-03-01T17:42:00Z,26.8015,-97.4706,0.0,7.6,15.0,8.9,'11111222,11111222,11111222' 
TCOON,ioos:station:TCOON:003:1,2019-03-01T17:48:00Z,26.8015,-97.4706,0.0,7.5,15.0,8.7,'11111222,11111222,11111222' 
TCOON,ioos:station:TCOON:003:1,2019-03-01T17:54:00Z,26.8015,-97.4706,0.0,7.6,13.0,8.8,'11111222,11111222,11111222' 
TCOON,ioos:station:TCOON:003:1,2019-03-01T18:00:00Z,26.8015,-97.4706,0.0,7.1,15.0,8.7,'11111222,11111222,11111222' 
TCOON,ioos:station:TCOON:003:1,2019-03-01T18:06:00Z,26.8015,-97.4706,0.0,6.1,15.0,8.2,'11111222,11111222,11111222' 
TCOON,ioos:station:TCOON:003:1,2019-03-01T18:12:00Z,26.8015,-97.4706,0.0,6.1,17.0,7.6,'11111222,11111222,11111222' 
TCOON,ioos:station:TCOON:003:1,2019-03-01T18:18:00Z,26.8015,-97.4706,0.0,5.8,13.0,7.1,'11111222,11111222,11111222' 
TCOON,ioos:station:TCOON:003:1,2019-03-01T18:24:00Z,26.8015,-97.4706,0.0,5.8,13.0,7.1,'1111122,1111122,1111122' 
TCOON,ioos:station:TCOON:003:1,2019-03-01T18:30:00Z,26.8015,-97.4706,0.0,4.9,10.0,6.6,'11111222,11111222,11111222' 
TCOON,ioos:station:TCOON:003:1,2019-03-01T18:36:00Z,26.8015,-97.4706,0.0,4.8,359.0,5.7,'11111222,11111222,11111222' 
TCOON,ioos:station:TCOON:003:1,2019-03-01T18:42:00Z,26.8015,-97.4706,0.0,5.9,6.0,6.5,'11111222,11111222,11111222' 
TCOON,ioos:station:TCOON:003:1,2019-03-01T18:48:00Z,26.8015,-97.4706,0.0,6.1,353.0,6.7,'11111222,11111222,11111222' 
TCOON,ioos:station:TCOON:003:1,2019-03-01T18:54:00Z,26.8015,-97.4706,0.0,5.9,5.0,7.1,'11111222,11111222,11111222' 
TCOON,ioos:station:TCOON:003:1,2019-03-01T19:00:00Z,26.8015,-97.4706,0.0,5.3,6.0,6.7,'11111222,11111222,11111222' 
TCOON,ioos:station:TCOON:003:1,2019-03-01T19:06:00Z,26.8015,-97.4706,0.0,5.7,5.0,6.5,'11111222,11111222,11111222' 
TCOON,ioos:station:TCOON:003:1,2019-03-01T19:12:00Z,26.8015,-97.4706,0.0,5.4,4.0,6.4,'11111222,11111222,11111222' 
TCOON,ioos:station:TCOON:003:1,2019-03-01T19:18:00Z,26.8015,-97.4706,0.0,5.3,7.0,6.1,'11111222,11111222,11111222' 
TCOON,ioos:station:TCOON:003:1,2019-03-01T19:24:00Z,26.8015,-97.4706,0.0,5.5,10.0,6.7,'11111222,11111222,11111222' 
TCOON,ioos:station:TCOON:003:1,2019-03-01T19:30:00Z,26.8015,-97.4706,0.0,5.5,10.0,6.7,'1111122,1111122,1111122' 
TCOON,ioos:station:TCOON:003:1,2019-03-01T19:36:00Z,26.8015,-97.4706,0.0,6.7,12.0,7.9,'11111222,11111222,11111222' 
TCOON,ioos:station:TCOON:003:1,2019-03-01T19:42:00Z,26.8015,-97.4706,0.0,6.8,19.0,7.9,'11111222,11111222,11111222' 
TCOON,ioos:station:TCOON:003:1,2019-03-01T19:48:00Z,26.8015,-97.4706,0.0,6.7,13.0,8.1,'11111222,11111222,11111222' 
TCOON,ioos:station:TCOON:003:1,2019-03-01T19:54:00Z,26.8015,-97.4706,0.0,6.0,18.0,7.6,'11111222,11111222,11111222' 
TCOON,ioos:station:TCOON:003:1,2019-03-01T20:00:00Z,26.8015,-97.4706,0.0,6.3,17.0,7.8,'11111222,11111222,11111222' 
TCOON,ioos:station:TCOON:003:1,2019-03-01T20:06:00Z,26.8015,-97.4706,0.0,6.9,20.0,8.1,'11111222,11111222,11111222' 
TCOON,ioos:station:TCOON:003:1,2019-03-01T20:12:00Z,26.8015,-97.4706,0.0,6.8,22.0,8.0,'11111222,11111222,11111222' 
TCOON,ioos:station:TCOON:003:1,2019-03-01T20:18:00Z,26.8015,-97.4706,0.0,7.0,23.0,7.8,'11111222,11111222,11111222' 
TCOON,ioos:station:TCOON:003:1,2019-03-01T20:24:00Z,26.8015,-97.4706,0.0,7.0,23.0,7.8,'1111122,1111122,1111122' 
TCOON,ioos:station:TCOON:003:1,2019-03-01T20:30:00Z,26.8015,-97.4706,0.0,7.2,24.0,8.2,'11111222,11111222,11111222' 
TCOON,ioos:station:TCOON:003:1,2019-03-01T20:36:00Z,26.8015,-97.4706,0.0,6.6,30.0,7.6,'11111222,11111222,11111222' 
TCOON,ioos:station:TCOON:003:1,2019-03-01T20:42:00Z,26.8015,-97.4706,0.0,6.7,24.0,8.1,'11111222,11111222,11111222' 
TCOON,ioos:station:TCOON:003:1,2019-03-01T20:48:00Z,26.8015,-97.4706,0.0,6.3,27.0,7.4,'11111222,11111222,11111222' 